TimeCST,TemperatureF,Dew PointF,Humidity,Sea Level PressureIn,VisibilityMPH,Wind Direction,Wind SpeedMPH,Gust SpeedMPH,PrecipitationIn,Events,Conditions,WindDirDegrees,DateUTC
12:53 AM,64.9,63.0,93,30.25,10.0,NNW,5.8,-,0.01,Rain,Light Rain,340,2012-11-24 06:53:00
1:29 AM,64.4,62.6,94,30.26,10.0,NNW,8.1,-,0.01,Rain,Light Rain,330,2012-11-24 07:29:00
1:41 AM,64.4,62.6,94,30.26,10.0,NNW,6.9,-,0.01,Rain,Light Rain,340,2012-11-24 07:41:00
1:49 AM,64.4,62.6,94,30.26,10.0,NNW,8.1,-,0.01,Rain,Light Rain,330,2012-11-24 07:49:00
1:53 AM,64.9,63.0,93,30.25,10.0,NNW,6.9,-,0.01,Rain,Light Rain,330,2012-11-24 07:53:00
2:53 AM,64.9,63.0,93,30.25,10.0,WNW,8.1,-,0.00,Rain,Light Rain,300,2012-11-24 08:53:00
3:09 AM,64.4,62.6,94,30.26,10.0,WNW,11.5,-,0.00,Rain,Light Rain,300,2012-11-24 09:09:00
3:53 AM,64.0,62.1,93,30.25,10.0,WNW,9.2,-,0.01,Rain,Light Rain,300,2012-11-24 09:53:00
4:53 AM,62.1,60.1,93,30.26,10.0,NW,9.2,-,0.00,Rain,Light Rain,310,2012-11-24 10:53:00
5:09 AM,62.6,57.2,82,30.26,10.0,NW,9.2,17.3,0.00,,Overcast,320,2012-11-24 11:09:00
5:40 AM,62.6,57.2,82,30.26,10.0,NW,10.4,-,0.00,,Overcast,320,2012-11-24 11:40:00
5:53 AM,62.1,57.9,86,30.26,10.0,NW,11.5,-,0.00,Rain,Light Rain,320,2012-11-24 11:53:00
6:53 AM,62.1,57.9,86,30.27,10.0,NW,10.4,-,0.00,,Overcast,320,2012-11-24 12:53:00
7:53 AM,63.0,60.1,90,30.28,9.0,NNW,12.7,18.4,N/A,,Overcast,340,2012-11-24 13:53:00
8:53 AM,64.9,62.1,90,30.30,9.0,North,11.5,-,N/A,,Overcast,350,2012-11-24 14:53:00
9:29 AM,66.2,62.6,88,30.31,10.0,North,11.5,19.6,N/A,,Overcast,350,2012-11-24 15:29:00
9:50 AM,66.2,62.6,88,30.32,10.0,North,10.4,-,N/A,,Overcast,350,2012-11-24 15:50:00
9:53 AM,66.9,62.1,84,30.31,10.0,North,11.5,-,N/A,,Overcast,350,2012-11-24 15:53:00
10:29 AM,66.2,60.8,83,30.31,10.0,North,11.5,23.0,N/A,,Overcast,360,2012-11-24 16:29:00
10:53 AM,66.0,61.0,84,30.30,10.0,North,12.7,19.6,N/A,,Overcast,350,2012-11-24 16:53:00
11:11 AM,66.2,60.8,83,30.30,10.0,North,12.7,21.9,N/A,,Overcast,360,2012-11-24 17:11:00
11:53 AM,64.9,60.1,84,30.29,10.0,North,11.5,19.6,N/A,,Overcast,360,2012-11-24 17:53:00
12:53 PM,64.9,57.0,75,30.25,10.0,NNW,13.8,18.4,N/A,,Overcast,340,2012-11-24 18:53:00
1:48 PM,68.0,57.2,68,30.23,10.0,North,13.8,-,N/A,,Overcast,350,2012-11-24 19:48:00
1:53 PM,68.0,57.9,70,30.22,10.0,North,10.4,-,N/A,,Overcast,360,2012-11-24 19:53:00
2:53 PM,68.0,57.0,68,30.21,10.0,North,11.5,18.4,N/A,,Overcast,350,2012-11-24 20:53:00
3:31 PM,68.0,55.4,64,30.20,10.0,North,13.8,19.6,N/A,,Mostly Cloudy,350,2012-11-24 21:31:00
3:40 PM,69.8,55.4,60,30.20,10.0,North,15.0,19.6,N/A,,Mostly Cloudy,350,2012-11-24 21:40:00
3:53 PM,66.9,55.9,68,30.20,10.0,North,11.5,-,N/A,,Mostly Cloudy,360,2012-11-24 21:53:00
4:53 PM,66.0,55.9,70,30.20,10.0,North,10.4,-,N/A,,Overcast,10,2012-11-24 22:53:00
5:25 PM,64.4,55.4,73,30.20,10.0,North,10.4,17.3,N/A,,Overcast,360,2012-11-24 23:25:00
5:53 PM,64.9,55.0,70,30.20,10.0,North,5.8,16.1,N/A,,Overcast,360,2012-11-24 23:53:00
6:53 PM,64.0,55.9,75,30.20,10.0,North,8.1,-,N/A,,Overcast,360,2012-11-25 00:53:00
7:51 PM,62.6,55.4,77,30.20,10.0,NNW,5.8,-,N/A,,Mostly Cloudy,340,2012-11-25 01:51:00
7:53 PM,63.0,55.0,75,30.20,10.0,North,5.8,-,N/A,,Mostly Cloudy,350,2012-11-25 01:53:00
8:03 PM,62.6,55.4,77,30.21,10.0,NNW,4.6,-,N/A,,Scattered Clouds,330,2012-11-25 02:03:00
8:53 PM,61.0,54.0,78,30.20,10.0,NNW,4.6,-,N/A,,Clear,330,2012-11-25 02:53:00
9:53 PM,59.0,53.1,81,30.19,10.0,NNW,4.6,-,N/A,,Clear,330,2012-11-25 03:53:00
10:53 PM,57.9,53.1,84,30.18,10.0,NW,5.8,-,N/A,,Partly Cloudy,320,2012-11-25 04:53:00
11:53 PM,59.0,54.0,83,30.16,10.0,NW,5.8,-,N/A,,Mostly Cloudy,320,2012-11-25 05:53:00